ANE weather

Anoka County-Blaine (Janes Field) Airport
Minneapolis, Minnesota, United States

Public forecast

Using degrees Fahrenheit for public forecast. Weather courtesy of forecast.io.

Current aviation weather report (METAR) for Anoka County-Blaine (Janes Field) Airport

Retrieved 2020/02/18 06:35 UTC (0 seconds ago):

KANE 180635Z AUTO 30009KT 10SM CLR M05/M08 A3002 RMK AO2

Aviation forecast (TAF) for Anoka County-Blaine (Janes Field) Airport

Forecast is more than 12 hours old.

Retrieved 2018/02/05 00:21 UTC (2 years ago):

TAF KANE 052320Z 0600/0624 28008KT P6SM FEW025 FM060300 30005KT P6SM FEW250 FM061600 21005KT P6SM SCT250 AMD NOT SKED